Starlink 32696

operational
NORAD ID: 62310 Int'l Des: 2024-239 Owner: SPXS Country: US Constellation: starlink
LEOCIRCULAR

关于 Starlink 32696

正在加载描述...

实时位置

正在加载3D地球...

即将过境

高度历史

Altitude vs Time

uPlot chart will show altitude changes over time

两行轨道根数

1 62310U 24239K 26095.22687364 .00028483 00000-0 97070-3 0 9993
2 62310 53.1577 70.8886 0001490 108.4986 251.6177 15.30180746 73441
Epoch: Apr 5, 2026 • Age: 16 hours

当前状态

高度 475.4 km
速度 7.63 km/s
星下点 17.16°N, 71.25°W
发射日期 Dec 13, 2024
运行时间 1.3 years
类型 internet

技术详情

分类 Payload
质量 730.00 kg
干质量 700.00 kg
总质量 730.00 kg
长度 0.30 m
直径 4.10 m
跨度 29.00 m
形状 Box + pan
制造商 SPXS
平台类型 Starlink V2M
阶段状态 In Orbit
所有者/国家 SPXS/US

大型星座

Loading constellations...